OpenBCM V1.08-5-g2f4a (Linux)

Packet Radio Mailbox

IZ3LSV

[San Dona' di P. JN]

 Login: GUEST





  
I0OJJ  > KEPS     19.10.25 01:28l 316 Lines 15004 Bytes #164 (0) @ AMSAT
BID : ORB25292.1
Read: GUEST
Subj: 2Line Orbital Elements 25292.AMSAT
Path: IZ3LSV<IK6IHL<IK7NXU<HB9ON<DK0WUE<ZL2BAU<VK3AT<VE3QBZ<VE3CGR<IR0AAB<
      I0OJJ
Sent: 251019/0021z @:I0OJJ.ITA.EU [Rome] obcm1.08-11-2-gbfe9
From: I0OJJ @ I0OJJ.ITA.EU (Gustavo)
To:   KEPS @ AMSAT
X-Info: This message was generated automatically


QST de W1STR

AMSAT Orbital Elements for Amateur Satellites in TLE Format
From Orbital Analysis Office
New England Sci-Tech STEM Education Center
Natick MA October 19, 2025
To all radio amateurs


These element sets describe the orbits of various satellites 
in use by the amateur radio community. For details see:
www.amsat.org/keplerian-elements-formats/

A daily update of element sets is available at:
www.amsat.org/tle/daily-bulletin.txt
or without bulletin text:
www.amsat.org/tle/dailytle.txt


AO-07
1 07530U 74089B   25291.28830809 -.00000013  00000-0  20746-3 0  9997
2 07530 101.9988 296.9657 0011961 232.3502 246.8075 12.53692545330204
UO-11
1 14781U 84021B   25291.18862246  .00003040  00000-0  32206-3 0  9995
2 14781  97.7719 255.1180 0005998 264.2713  95.7821 14.89855951221081
AO-27
1 22825U 93061C   25291.26624738  .00000197  00000-0  92010-4 0  9998
2 22825  98.7224 353.3812 0009499  90.6879 269.5392 14.30846448672405
FO-29
1 24278U 96046B   25291.17448998  .00000027  00000-0  64234-4 0  9999
2 24278  98.5522 167.7530 0350083   4.3386 356.0657 13.53257042440437
NOAA-15
1 25338U 98030A   25291.29864824  .00000241  00000-0  11658-3 0  9994
2 25338  98.5284 313.2461 0009828 342.7287  17.3559 14.27037264426793
GO-32
1 25397U 98043D   25291.21233444  .00000168  00000-0  92679-4 0  9994
2 25397  98.9869 273.1556 0001428 148.1908 211.9357 14.24353461416880
ISS
1 25544U 98067A   25291.07325464  .00013628  00000-0  25328-3 0  9993
2 25544  51.6337  58.0643 0004254 304.7888  55.2700 15.49199814534222
NO-44
1 26931U 01043C   25291.13441473  .00000255  00000-0  12636-3 0  9998
2 26931  67.0493 150.2721 0007125 273.3924  86.6362 14.31807329255792
SO-50
1 27607U 02058C   25291.07579973  .00002182  00000-0  28122-3 0  9994
2 27607  64.5528 157.5978 0068607 307.0141  52.4699 14.82094748228564
CO-55
1 27844U 03031E   25291.29743747  .00000551  00000-0  25828-3 0  9993
2 27844  98.6788 297.9103 0009896 161.7766 198.3769 14.24109444157245
CO-57
1 27848U 03031J   25291.23721619  .00000472  00000-0  22699-3 0  9990
2 27848  98.6817 297.7565 0009451 179.4098 180.7093 14.23427927156953
RS-22
1 27939U 03042A   25291.28203579  .00002031  00000-0  32636-3 0  9993
2 27939  98.3378 104.0173 0010662 320.4480 142.5405 14.72730028179936
CO-58
1 28895U 05043F   25291.16730357  .00003150  00000-0  51474-3 0  9998
2 28895  98.2680  77.3332 0013376 251.7781 108.1970 14.71551053 66148
CO-65
1 32785U 08021C   25291.24518125  .00009011  00000-0  62104-3 0  9990
2 32785  97.8016 263.6102 0011490 122.3214 237.9127 15.06018259948737
CO-66
1 32791U 08021J   25291.22244723  .00024252  00000-0  10436-2 0  9999
2 32791  97.7407 274.5820 0006416  83.2107 276.9858 15.22603796950341
RS-30
1 32953U 08025A   25291.26079223  .00000034  00000-0  16913-3 0  9997
2 32953  82.5018 145.9322 0019749 118.3109 241.9966 12.43169429789638
NOAA-19
1 33591U 09005A   25291.23761687  .00000080  00000-0  66637-4 0  9994
2 33591  98.9839 356.5911 0013625 359.0304   1.0840 14.13418610860309
SRMSAT
1 37841U 11058D   25291.12102345  .00000520  00000-0  13851-3 0  9993
2 37841  19.9717  84.5586 0011835  60.6932 101.7147 14.11482276723570
ZACUBE-1
1 39417U 13066B   25291.30732447  .00010783  00000-0  89738-3 0  9996
2 39417  97.7970 247.8355 0041898 338.6440  21.3032 14.98164994644478
Delfi-N3xt
1 39428U 13066N   25291.24883971  .00014482  00000-0  13989-2 0  9994
2 39428  97.8295 207.5448 0079306 290.4668  68.8049 14.90561830638524
GOMX-1
1 39430U 13066Q   25291.29776396  .00003215  00000-0  49633-3 0  9992
2 39430  97.6664 141.8890 0132096 133.3500 227.8804 14.68228835634401
LO-74
1 39440U 13066AA  25291.32549303  .00007526  00000-0  73717-3 0  9992
2 39440  97.8610 235.1350 0062543 107.6769 253.1291 14.91086617640914
AO-73
1 39444U 13066AE  25291.14937552  .00017545  00000-0  12326-2 0  9993
2 39444  97.7980 253.8279 0037931 308.1491  51.6318 15.04596066643202
DTUSAT-2
1 40030U 14033W   25290.91264702  .00014192  00000-0  86698-3 0  9994
2 40030  98.0697 269.3100 0008311 354.7180   5.3958 15.10377684616050
EO-80
1 40032U 14033Y   25291.19083816  .00012811  00000-0  78161-3 0  9994
2 40032  98.0583 269.0759 0005840 283.7610  76.2968 15.10466984616078
LILACSAT-2
1 40908U 15049K   25291.24445183  .00021541  00000-0  49843-3 0  9994
2 40908  97.4990 314.9913 0010076  58.7636 301.4596 15.42441837558342
IO-86
1 40931U 15052B   25151.18580175  .00001241  00000-0  78118-4 0  9996
2 40931   6.0006  24.0987 0012733 338.8432  21.1169 14.78805930523159
Horyu-4
1 41340U 16012D   25290.82541745  .00053704  00000-0  11130-2 0  9993
2 41340  30.9955 332.0531 0003051 353.6087   6.4521 15.44462121532887
Lapan A3
1 41603U 16040E   25291.27861223  .00005960  00000-0  20162-3 0  9999
2 41603  97.1427 290.8776 0011585 152.7392 207.4460 15.30911678517775
CAS-2T
1 41847U 16066G   25291.19104378  .00002943  00000-0  42188-3 0  9999
2 41847  98.4100   4.4739 0345385 143.0960 219.4544 14.43903394469868
CAS-4B
1 42759U 17034B   25286.97241530  .03437790  89859-5  10544-2 0  9999
2 42759  42.9888 273.3261 0008257 129.3938 230.7682 16.25684504462550
CAS-4A
1 42761U 17034D   25281.34159269  .04203186  90411-5  12507-2 0  9993
2 42761  42.9927 303.5081 0008135  81.2710 278.9099 16.26032227461692
TechnoSat
1 42829U 17042E   25291.27431273  .00007450  00000-0  55958-3 0  9998
2 42829  97.4008  93.9044 0018333 198.6831 161.3724 15.02741387450346
AO-91
1 43017U 17073E   25291.23844408  .00013108  00000-0  63315-3 0  9999
2 43017  97.5031 158.7483 0167541  80.7232 281.2900 15.07161132428872
S-Net D
1 43186U 18014G   25291.23100927  .00008388  00000-0  47359-3 0  9997
2 43186  97.5482 192.8101 0010243 126.8598 233.3574 15.13340223422122
S-Net B
1 43187U 18014H   25291.30431693  .00008071  00000-0  45601-3 0  9990
2 43187  97.5489 192.8606 0011071 122.9948 237.2348 15.13318449422134
S-Net A
1 43188U 18014J   25291.23093377  .00008483  00000-0  47876-3 0  9999
2 43188  97.5495 192.9558 0010888 123.9064 236.3205 15.13345583422124
S-Net C
1 43189U 18014K   25291.30707799  .00008309  00000-0  46919-3 0  9992
2 43189  97.5514 193.0678 0012585 118.1062 242.1443 15.13312904420681
Ten-Koh
1 43677U 18084G   25291.26761625  .00004081  00000-0  32211-3 0  9997
2 43677  98.0711 108.6996 0008980 182.8470 177.2704 15.01284530379847
PO-101
1 43678U 18084H   25291.25639566  .00004738  00000-0  39584-3 0  9994
2 43678  98.1075 112.4837 0007440 194.8536 165.2468 14.99021284379952
QO-100
1 43700U 18090A   25291.27315600  .00000000  00000-0  00000-0 0  9995
2 43700   0.0241 223.8803 0001781  23.6585 263.5908  1.00268700 25256
MinXSS-2
1 43758U 18099A   25291.12825530  .00040922  00000-0  13686-2 0  9992
2 43758  97.4883 357.8761 0011272  60.1681 300.0678 15.30808730376904
AO-95
1 43770U 18099N   25291.13416040  .00019739  00000-0  91577-3 0  9997
2 43770  97.4767 347.8811 0011459 115.6388 244.6032 15.20022440376363
SNUSat 2
1 43782U 18099AA  25291.13908436  .00015521  00000-0  78998-3 0  9992
2 43782  97.4453 343.5305 0012873  65.7329 294.5248 15.16831140376273
SnugLite
1 43784U 18099AC  25291.26652644  .00016754  00000-0  77100-3 0  9998
2 43784  97.4264 343.5243 0004635  72.7996 287.3746 15.20385360376479
ITASat 1
1 43786U 18099AE  25291.23384812  .00011947  00000-0  64389-3 0  9990
2 43786  97.4418 342.7259 0015193 112.9157 247.3681 15.14840148376227
EAGLET 1
1 43790U 18099AJ  25291.13296748  .00007735  00000-0  47466-3 0  9991
2 43790  97.4621 342.1056 0013436 100.4517 259.8227 15.10314055375768
ESEO
1 43792U 18099AL  25291.10310087  .00002574  00000-0  19439-3 0  9998
2 43792  97.4338 333.5450 0014643  80.5739 279.7142 15.03162070375422
JO-97
1 43803U 18099AX  25291.26099663  .00021884  00000-0  89333-3 0  9997
2 43803  97.4515 349.3343 0007853  56.0150 304.1833 15.24394840376659
Suomi 100
1 43804U 18099AY  25291.24349806  .00018713  00000-0  83583-3 0  9991
2 43804  97.4579 348.1929 0012616  57.3100 302.9350 15.21327027376547
ISAT
1 43879U 18111D   25291.27909332  .00044549  00000-0  12437-2 0  9992
2 43879  97.5877 209.0029 0011053  93.2933 266.9575 15.36531672373717
UWE-4
1 43880U 18111E   25291.26534895  .00032127  00000-0  10764-2 0  9991
2 43880  97.5821 206.4222 0013535 105.3740 254.8997 15.30777241373589
Sparrow
1 43881U 18111F   25291.27031208  .00049163  00000-0  12969-2 0  9990
2 43881  97.6050 212.4400 0008943 116.4737 243.7425 15.38287293373827
Prox-1
1 44339U 19036A   25291.30692824  .00021770  00000-0  25718-2 0  9997
2 44339  23.9964 281.3131 0007453 128.1176 231.9994 14.83127089337421
Taurus 1
1 44530U 19059C   25291.30708291  .00012687  00000-0  22273-2 0  9991
2 44530  98.6203  77.1734 0008673 349.3755  10.7264 14.67819339323105
Duchifat 3
1 44854U 19089C   25291.22464431  .00195792  00000-0  17965-2 0  9990
2 44854  36.9345 235.8048 0009589 248.8172 111.1567 15.66137239323340
TO-108
1 44881U 19093C   25291.28319221  .00001631  00000-0  19292-3 0  9991
2 44881  97.7817   4.1449 0014221 157.1644 203.0207 14.85909321315483
FloripaSat 1
1 44885U 19093G   25291.30250338  .00010564  00000-0  84904-3 0  9998
2 44885  97.8092  19.2674 0010975 141.0683 219.1332 15.00158288316335
RS-44
1 44909U 19096E   25291.27183261  .00000046  00000-0  14400-3 0  9992
2 44909  82.5195 140.4723 0217404 350.2770   9.4155 12.79744645271408
UPMSat 2
1 46276U 20061E   25284.11510829  .12115553  24945-5  13983-3 0  9991
2 46276  97.2106   5.1352 0012001 257.8540 102.1421 16.49625583285008
SALSAT
1 46495U 20068K   25291.24078037  .00013699  00000-0  55151-3 0  9992
2 46495  97.8744 275.5897 0012993  72.2411 288.0243 15.24927575278420
